Regional Weather Roundup
Issued by NWS

Home | Current Version | Previous Version | Text Only | Print | Product List | Glossary On
Versions: 1 2 3 4 5 6 7 8 9 10 11 12 13 14 15 16 17 18 19 20 21 22 23 24 25 26 27 28 29 30 31 32 33 34 35 36 37 38 39 40 41 42 43 44 45 46 47 48 49 50
000
ASHW40 PHFO 042343
RWRHI

WEATHER ROUNDUP FOR HAWAII
NATIONAL WEATHER SERVICE HONOLULU HI
100 PM HST SUN DEC 04 2016

THIS IS AN AUTOMATED REPORT THAT HAS NOT BEEN QUALITY CONTROLLED.

NOTE..."FAIR" INDICATES FEW OR NO CLOUDS BELOW 12,000 FEET WITH NO
SIGNIFICANT WEATHER AND/OR OBSTRUCTIONS TO VISIBILITY.

* - THESE SITES REPORT LIMITED FIELDS

HIZ001>004-050000-
KAUAI-NIIHAU-

CITY           SKY/WX    TMP DP  RH WIND       PRES   REMARKS
LIHUE APT      CLOUDY    75  66  73 SW14      29.87F
PORT ALLEN*      N/A     77 N/A N/A W6          N/A
POIPU*           N/A     73 N/A N/A SW6         N/A
PRINCEVILLE*     N/A     75 N/A N/A W5G10       N/A
KOKOLE POINT*  NOT AVBL
MOLOAA DAIRY*    N/A     81  57  44 S8G18       N/A
WAIMEA HTS*      N/A     82  70  65 SE2         N/A
PUU OPAE*        N/A     73  57  56 S8          N/A
PUU LUA*       NOT AVBL
MAKAHA RIDGE*    N/A     81  55  41 S7G18       N/A
$$

HIZ005>011-050000-
OAHU-

CITY           SKY/WX    TMP DP  RH WIND       PRES   REMARKS
HONOLULU       LGT RAIN  75  71  87 E7        29.90F
KALAELOA       LGT RAIN  77  72  83 SE5       29.91F
KANEOHE MCB    LGT RAIN  76  72  87 SE5       29.87
WHEELER FIELD  RAIN      73  72  94 SE6       29.92R FOG
BELLOWS*         N/A    N/A N/A N/A SE3         N/A
KAHUKU*          N/A    N/A N/A N/A E6          N/A
WHEELER*         N/A    N/A N/A N/A SE7         N/A
WAIANAE HARBOR   N/A    N/A N/A N/A SE12G17     N/A
DILLINGHAM*      N/A     86  77  74 MISG        N/A  HX  97
KAHUKU TRN*      N/A     81  75  83 NW3G10      N/A
KAWAILOA*        N/A     73  66  78 S3          N/A
KII*             N/A     77  72  83 E10         N/A
MAKUA RANGE*     N/A     79  70  73 E3          N/A
OAHU FOREST NW   N/A     70  66  88 S3G15       N/A
SCHOFIELD BRK*   N/A     72  68  88 MISG        N/A
SCHOFIELD S*   NOT AVBL
WAIANAE VLY*   NOT AVBL
KUAOKALA*        N/A     72  70  94 SE3G12      N/A
HONOULIUULI*   NOT AVBL
MOKUOLOE IS*   NOT AVBL
PALEHUA*         N/A     66  66 100 E3G10       N/A
WAIAWA PHB*    NOT AVBL
$$

HIZ012>013-050000-
MOLOKAI-

CITY           SKY/WX    TMP DP  RH WIND       PRES   REMARKS
MOLOKAI AIRPT  LGT RAIN  75  70  84 SE8       29.94F
KALAUPAPA      NOT AVBL
MAKAPULAPAI*     N/A     75  72  88 E9          N/A
MOLOKAI 1*     NOT AVBL
PUU ALII*        N/A     61  60  96 E1G8        N/A
$$

HIZ016-050000-
KAHOOLAWE-

CITY           SKY/WX    TMP DP  RH WIND       PRES   REMARKS
KAHOOLAWE*       N/A     70 N/A N/A S1          N/A
HAKIOAWA*        N/A     70  69  95 MISG      30.33F
HONOKANAIA*      N/A     78  72  82 E7        29.91R
KANELOA*         N/A     73  72  94 SE7       30.04R
KEALIALALO*    NOT AVBL
LUA MAKIKA*    NOT AVBL
$$

HIZ014>015-050000-
LANAI-

CITY           SKY/WX    TMP DP  RH WIND       PRES   REMARKS
LANAI CITY     CLOUDY    70  66  88 E8        29.98F
LANAI 1*       NOT AVBL
$$

HIZ017>028-050000-
MAUI-

CITY           SKY/WX    TMP DP  RH WIND       PRES   REMARKS
KAHULUI        LGT RAIN  78  70  76 S7        29.94F
KAPALUA-W MAUI LGT RAIN  75  72  88 VRB7      29.95
HANA AIRPORT   LGT RAIN  73  72  94 SW3       29.93F
HANA*            N/A     75 N/A N/A N2          N/A
HALEAKALA SUMM   N/A     39  39 100 SE15        N/A
MAALAEA BAY*     N/A     77 N/A N/A SW9         N/A
HALEAKALA*     NOT AVBL
KAUPO GAP*       N/A     72  66  83 SE5G13      N/A
KULA 1*          N/A     50  48  93 SE16G29     N/A
$$

HIZ023>026-050000-
BIG ISLAND OF HAWAII COAST AND LOWER SLOPES-

CITY           SKY/WX    TMP DP  RH WIND       PRES   REMARKS
KAILUA KONA    LGT RAIN  76  68  76 CALM      29.92F
HILO           LGT RAIN  75  70  83 N13       29.87S
HONOKAA*         N/A     70 N/A N/A VRB1        N/A
KAWAIHAE MWT*    N/A     77 N/A N/A NE1         N/A
KAWAIHAE*      NOT AVBL
SOUTH POINT*     N/A     73 N/A N/A SW5G13      N/A
UPOLU AIRPORT* NOT AVBL
KAMUELA*       PTCLDY    64  63  94 CALM      30.01F
HAKALAU*         N/A     58  50  74 S5G12       N/A
KALOKO-HONOKO*   N/A     75  72  88 VRB3        N/A
PALI 2*          N/A     72  63  73 E5G12       N/A
KEALAKOMO*       N/A     81  72  74 S3          N/A
KAUPULEHU*       N/A     70  66  88 E3          N/A
KAPAPALA*      NOT AVBL
LOWER KAHUKU*    N/A    N/A N/A N/A NW1         N/A
PUHE CS*       NOT AVBL
PUHO CS*         N/A     75  68  77 NE1         N/A
PTA KEAMUKU*     N/A     63  59  88 CALM        N/A
WAIKOLOA*        N/A     72  66  83 SE3         N/A
$$

HIZ027>028-050000-
BIG ISLAND OF HAWAII INTERIOR AND SUMMMITS-

CITY           SKY/WX    TMP DP  RH WIND       PRES   REMARKS
BRADSHAW FIELD LGT RAIN  57  48  72 CALM      30.22F
MK VISITOR CEN   N/A     46  43  87 E6          N/A
MAUNA KEA*       N/A     32  30  93 E31         N/A  WCI  17
MAUNA LOA*       N/A     41  36  81 MISG        N/A
MAUNA LOA 1*   NOT AVBL
PTA KIPUKA*      N/A     64  61  88 SW2         N/A
PTA RANGE 17*    N/A     50  43  76 W3G9        N/A
PTA WEST*        N/A     59  55  88 W1G12       N/A
NENE CABIN*      N/A     54  48  82 NE3G12      N/A
AHUMOA*          N/A     57  53  85 NW3         N/A
PTA PORTABLE*  NOT AVBL
PUU MALI*      NOT AVBL
$$

HIC003-050000-
NORTHWEST ISLANDS-

CITY           SKY/WX    TMP DP  RH WIND       PRES   REMARKS
MIDWAY ISLAND  CLOUDY    68  64  88 CALM      30.13F
MIDWAY NOS*      N/A     70 N/A N/A MISG      30.09F
FRENCH FRIGATE NOT AVBL
$$

PHZ110>124-180-050000-
BUOY REPORTS

STATION/POSITION TIME  TEMP    WIND        PRES    WAVE   SWELL
                       AIR SEA DIR/SP/G            HT/PER HT/DIR
                 (UTC) (F)     (DEG/KT/KT) (MB)    (FT/S) (FT/D)
BUOY 51001       2330   73 78  310/  8/ 14 1009.6F
BUOY 51101       2250   74 78  320/ 10/ 14 1010.9F  11/12  11/340
BUOY 51100       NOT AVBL
BUOY 51002       2330   74 78   50/ 16/ 19 1011.0F
BUOY 51003       2250   76 79  190/  2/  8 1011.1F   9/11   8/330
BUOY 51004       2250   77 79  110/ 14/ 16 1011.5F   9/10   8/ 90
BARBERS PT BUOY  NOT AVBL
WAIMEA BAY BUOY  NOT AVBL
KAILUA BAY BUOY  2304      78                N/A     7/10   5/ 20
LANAI BUOY       2315      78                N/A     4/15   3/220
BARBERS PT 2     2309      79                N/A     5/13   3/300
PAUWELA MAUI     2309      78                N/A     9/13   5/330
HILO             2312      78                N/A     9/10   5/100
KANEOHE BAY BUOY 2306      77                N/A     6/11   3/ 40
HANALEI KAUAI    2322      78                N/A    11/12   8/320
KAHULUI HARBOR   2312   77 76  180/  5/  7 1013.0
HONOLULU HARBOR  2312   76 78   CALM  /  2 1013.1
KILO NALU        NOT AVBL
HILO HARBOR      2312   75 76   10/ 18/ 19 1010.9
MOKUOLOE         2236   74     220/  2/  4   N/A
NAWILIWILI       2312   78 78  220/  9/ 15 1010.9
WHOTS BUOY       NOT AVBL
BUOY 51028       NOT AVBL
$$

......................KEY........................................
  SKY/WX - SKY CONDITIONS/PRESENT WEATHER
  TMP    - TEMPERATURE IN FAHRENHEIT
  DWPT   - DEWPOINT IN FAHRENHEIT
  RH     - RELATIVE HUMIDITY IN PERCENT
  WIND   - DIRECTION AND SPEED /MPH FOR ISLANDS...KTS FOR BUOYS/
  PRES   - MEAN SEA LEVEL PRESSURE IN INCHES OF HG
  VSB    - VISIBILITY IN MILES
  HX     - HEAT INDEX
  WCI    - WIND CHILL INDEX
  VRB    - VARIABLE WIND DIRECTION
  N/A    - NOT AVAILABLE




USA.gov is the U.S. government's official web portal to all federal, state and local government web resources and services.